Location: Narrabri
(30.3170°S, 149.7830°E)
Time: 06:16:49
(UTC+10:00)

OTV 5 (USA 277) - Visible Passes

Search period start: 19 July 2018 00:00
Search period end: 29 July 2018 00:00
Orbit: 312 x 321 km, 54.5° (Epoch: 05 July)

Date Brightness Start Highest point End Pass type
(mag) Time Alt. Az. Time Alt. Az. Time Alt. Az.
19 Jul ? 18:36:11 10° N 18:37:24 17° NNE 18:37:24 17° NNE visible
20 Jul ? 18:49:56 10° NW 18:52:05 51° NW 18:52:05 51° NW visible
21 Jul ? 19:04:50 10° WNW 19:06:42 23° WSW 19:06:42 23° WSW visible
22 Jul ? 17:44:45 10° NNW 17:47:20 39° NE 17:49:57 10° SE visible
23 Jul ? 17:59:06 10° WNW 18:01:44 44° SW 18:04:25 10° SSE visible
24 Jul ? 18:14:39 10° W 18:16:19 15° SW 18:17:59 10° S visible
